Location: Fauquembergues
(50.6005°N, 2.0987°E)
Time: 08:18:55
(UTC+00:00)

Cosmos 220 Rocket - Pass Details

Date: 14 July 2020
Orbit: 576 x 616 km, 74.0° (Epoch: 14 August)

Event Time Altitude Azimuth Distance (km) Brightness Sun altitude
Rises 00:52:53 0° 338° (NNW) 2,832 8.4 -16.7°
Reaches altitude 10° 00:55:10 10° 342° (NNW) 1,921 7.5 -16.7°
Maximum altitude 00:59:23 57° 62° (ENE) 691 4.5 -16.5°
Enters shadow 01:02:52 14° 140° (SE) 1,635 5.9 -16.3°
